Location: Fort Worth, Tx
(32.7431°N, 97.3695°W)
Time: 10:58:41
(UTC-04:00)

A-11 Canister half - Pass Details

Date: 20 August 2024
Orbit: 1524 x 1684 km, 47.3° (Epoch: 13 September)

Event Time Altitude Azimuth Distance (km) Brightness Sun altitude
Rises 06:36:16 0° 304° (NW) 4,936 11.4 -16.6°
Reaches altitude 10° 06:39:32 10° 301° (WNW) 3,938 10.8 -16.0°
Maximum altitude 06:49:15 55° 227° (SW) 1,924 9.2 -14.2°
Drops below altitude 10° 06:58:42 10° 152° (SSE) 3,825 11.1 -12.3°
Sets 07:01:51 0° 148° (SSE) 4,787 11.7 -11.7°
